Location: Wanzleben
(52.0609°N, 11.4408°E)
Time: 10:47:17
(UTC+00:00)

CZ-2C R/B - Pass Details

Date: 18 September 2020
Orbit: 704 x 908 km, 98.1° (Epoch: 30 October)

Event Time Altitude Azimuth Distance (km) Brightness Sun altitude
Rises 17:57:22 0° 165° (SSE) 3,259 6.0 -6.4°
Reaches altitude 10° 17:59:38 10° 165° (SSE) 2,365 5.3 -6.7°
Maximum altitude 18:04:53 86° 254° (WSW) 840 3.3 -7.5°
Drops below altitude 10° 18:10:30 10° 345° (NNW) 2,515 6.1 -8.3°
Sets 18:12:58 0° 346° (NNW) 3,482 6.8 -8.7°
